User: anonymous   Login
Location: Ammerl�gen
(47.2167°N, 9.6000°E)
Time: 00:58:44
(UTC+00:00)
Language:

Cosmos 2237 Rocket - Orbit

View from above orbital plane
View from above orbital plane
View from above satellite
View from above satellite

Ground track
Ground track

The orbit data is extracted from the following two-line orbital elements,

1 22566U 93016B   21174.54163126  .00000288  00000-0  17309-3 0  9994
2 22566  71.0067 226.7957 0008572  54.7622 305.4301 14.14972831458823
Epoch (UTC): 23 June 2021 12:59:56
Eccentricity: 0.0008572
inclination: 71.0067°
perigee height: 836 km
apogee height: 848 km
right ascension of ascending node: 226.7957°
argument of perigee: 54.7622°
revolutions per day: 14.14972831
mean anomaly at epoch: 305.4301°
orbit number at epoch: 45882

The dashed part of the orbit path shows where the satellite is in the earth's shadow,  

DLR